TimePDT,TemperatureF,Dew PointF,Humidity,Sea Level PressureIn,VisibilityMPH,Wind Direction,Wind SpeedMPH,Gust SpeedMPH,PrecipitationIn,Events,Conditions,WindDirDegrees,DateUTC
12:53 AM,53.1,44.1,71,30.18,10.0,Calm,Calm,-,N/A,,Clear,0,2014-04-29 07:53:00
1:53 AM,52.0,43.0,71,30.18,10.0,Calm,Calm,-,N/A,,Clear,0,2014-04-29 08:53:00
2:53 AM,51.1,43.0,74,30.18,10.0,East,3.5,-,N/A,,Clear,90,2014-04-29 09:53:00
3:53 AM,48.9,43.0,80,30.18,10.0,Calm,Calm,-,N/A,,Clear,0,2014-04-29 10:53:00
4:53 AM,48.9,43.0,80,30.18,10.0,Calm,Calm,-,N/A,,Clear,0,2014-04-29 11:53:00
5:53 AM,48.0,42.1,80,30.18,10.0,ENE,3.5,-,N/A,,Clear,70,2014-04-29 12:53:00
6:53 AM,50.0,43.0,77,30.19,10.0,Calm,Calm,-,N/A,,Clear,0,2014-04-29 13:53:00
7:53 AM,54.0,46.9,77,30.20,10.0,Calm,Calm,-,N/A,,Clear,0,2014-04-29 14:53:00
8:53 AM,62.1,46.9,58,30.20,10.0,Calm,Calm,-,N/A,,Clear,0,2014-04-29 15:53:00
9:53 AM,73.0,45.0,37,30.18,10.0,Calm,Calm,-,N/A,,Clear,0,2014-04-29 16:53:00
10:53 AM,79.0,32.0,18,30.17,10.0,NE,15.0,21.9,N/A,,Clear,40,2014-04-29 17:53:00
11:53 AM,80.1,34.0,19,30.17,10.0,NNE,9.2,-,N/A,,Clear,20,2014-04-29 18:53:00
12:53 PM,82.9,37.9,20,30.14,10.0,Variable,6.9,-,N/A,,Clear,0,2014-04-29 19:53:00
3:53 PM,86.0,39.0,19,30.08,10.0,NE,10.4,20.7,N/A,,Clear,40,2014-04-29 22:53:00
4:53 PM,86.0,37.9,18,30.06,10.0,NNE,6.9,18.4,N/A,,Clear,30,2014-04-29 23:53:00
5:53 PM,86.0,37.0,18,30.05,10.0,NNE,8.1,-,N/A,,Clear,30,2014-04-30 00:53:00
6:53 PM,84.9,37.9,19,30.04,10.0,NNE,5.8,-,N/A,,Clear,20,2014-04-30 01:53:00
7:53 PM,80.1,41.0,25,30.04,10.0,Calm,Calm,-,N/A,,Clear,0,2014-04-30 02:53:00
8:53 PM,72.0,42.1,34,30.04,10.0,Calm,Calm,-,N/A,,Clear,0,2014-04-30 03:53:00
9:53 PM,71.1,44.1,38,30.05,10.0,Calm,Calm,-,N/A,,Clear,0,2014-04-30 04:53:00
10:53 PM,64.9,44.1,47,30.06,10.0,NE,3.5,-,N/A,,Clear,50,2014-04-30 05:53:00
11:53 PM,61.0,45.0,56,30.06,10.0,Calm,Calm,-,N/A,,Clear,0,2014-04-30 06:53:00